K5NCO Weather Reports


time (UTC)temp
C
wind
direction
speed
KPH
gust
KPH
rain 1hr
cm
rain 24hr
cm
rain mn
cm
humidity
%
barometer
mb
20260902003147 35 84 9.7 12.9 0.00 0.00 0.00 45 1014.7
20260902002643 35 61 6.4 9.7 0.00 0.00 0.00 45 1014.6
20260902002142 35 64 3.2 4.8 0.00 0.00 0.00 45 1014.7
20260902001638 35 66 3.2 6.4 0.00 0.00 0.00 45 1014.4
20260902001132 35 41 4.8 4.8 0.00 0.00 0.00 45 1014.6
20260902000627 35 76 9.7 16.1 0.00 0.00 0.00 44 1014.6
20260902000122 35 46 11.3 14.5 0.00 0.00 0.00 44 1014.4
20260901235622 35 51 8.0 14.5 0.00 0.00 0.00 43 1014.5
20260901235118 35 94 8.0 11.3 0.00 0.00 0.00 40 1014.5
20260901234616 35 92 3.2 4.8 0.00 0.00 0.00 40 1014.4
20260901234112 35 65 3.2 6.4 0.00 0.00 0.00 41 1014.3
20260901233607 35 36 12.9 16.1 0.00 0.00 0.00 41 1014.4
20260901233103 35 57 6.4 11.3 0.00 0.00 0.00 41 1014.4
20260901232557 35 42 4.8 6.4 0.00 0.00 0.00 41 1014.5
20260901232058 36 70 6.4 11.3 0.00 0.00 0.00 41 1014.3
20260901231554 36 103 4.8 6.4 0.00 0.00 0.00 43 1014.4
20260901231050 36 62 4.8 6.4 0.00 0.00 0.00 43 1014.4
20260901230546 36 35 6.4 6.4 0.00 0.00 0.00 43 1014.5
20260901230040 36 35 3.2 4.8 0.00 0.00 0.00 43 1014.6
20260901225535 36 52 11.3 14.5 0.00 0.00 0.00 42 1014.6
20260901225035 36 17 6.4 9.7 0.00 0.00 0.00 42 1014.6
20260901224531 36 34 8.0 12.9 0.00 0.00 0.00 42 1014.5
20260901224027 36 62 4.8 9.7 0.00 0.00 0.00 43 1014.5
20260901223522 36 139 4.8 9.7 0.00 0.00 0.00 43 1014.4
20260901223018 36 50 9.7 11.3 0.00 0.00 0.00 43 1014.6
20260901222514 36 81 11.3 11.3 0.00 0.00 0.00 43 1014.5
20260901222009 36 98 9.7 12.9 0.00 0.00 0.00 43 1014.4
20260901221505 36 63 11.3 12.9 0.00 0.00 0.00 43 1014.6
20260901221001 36 81 9.7 12.9 0.00 0.00 0.00 42 1014.5
20260901220500 36 27 8.0 11.3 0.00 0.00 0.00 42 1014.8
20260901215958 36 19 4.8 4.8 0.00 0.00 0.00 43 1014.7
20260901215457 36 52 0.0 1.6 0.00 0.00 0.00 44 1014.7
20260901214956 36 65 8.0 11.3 0.00 0.00 0.00 42 1014.6
20260901214455 36 142 6.4 11.3 0.00 0.00 0.00 42 1014.5
20260901213950 35 143 6.4 9.7 0.00 0.00 0.00 42 1014.8
20260901213444 35 143 0.0 3.2 0.00 0.00 0.00 44 1014.8
20260901212943 35 102 6.4 9.7 0.00 0.00 0.00 44 1014.7
20260901212439 35 69 3.2 4.8 0.00 0.00 0.00 45 1014.9
20260901211936 36 13 4.8 6.4 0.00 0.00 0.00 44 1014.7
20260901211431 36 273 0.0 0.0 0.00 0.00 0.00 44 1015.1
20260901210927 35 94 8.0 12.9 0.00 0.00 0.00 44 1014.9
20260901210423 36 63 1.6 3.2 0.00 0.00 0.00 45 1014.9
20260901205919 36 256 0.0 0.0 0.00 0.00 0.00 44 1015.0
20260901205413 35 98 9.7 11.3 0.00 0.00 0.00 46 1015.3
20260901204908 35 47 0.0 0.0 0.00 0.00 0.00 45 1015.3
20260901204405 35 62 6.4 9.7 0.00 0.00 0.00 47 1015.4
20260901203904 35 38 3.2 6.4 0.00 0.00 0.00 47 1015.4
20260901203358 35 7 11.3 12.9 0.00 0.00 0.00 45 1015.7
20260901202853 35 82 9.7 14.5 0.00 0.00 0.00 45 1015.4
20260901202348 35 14 0.0 0.0 0.00 0.00 0.00 46 1015.5
20260901201845 36 30 0.0 0.0 0.00 0.00 0.00 44 1015.7
20260901201344 35 68 0.0 0.0 0.00 0.00 0.00 45 1015.7
20260901200838 35 89 4.8 4.8 0.00 0.00 0.00 44 1015.9
20260901200333 36 47 11.3 16.1 0.00 0.00 0.00 43 1015.8
20260901195832 35 330 0.0 0.0 0.00 0.00 0.00 46 1015.9
20260901195330 35 121 6.4 9.7 0.00 0.00 0.00 47 1016.1
20260901194826 35 72 8.0 12.9 0.00 0.00 0.00 47 1016.2
20260901194321 34 176 3.2 3.2 0.00 0.00 0.00 47 1016.2
20260901193818 35 97 3.2 4.8 0.00 0.00 0.00 47 1016.0
20260901193316 35 98 3.2 4.8 0.00 0.00 0.00 47 1016.4
20260901192811 35 58 1.6 1.6 0.00 0.00 0.00 47 1016.5
20260901192306 35 82 9.7 11.3 0.00 0.00 0.00 46 1016.5
20260901191803 35 80 12.9 16.1 0.00 0.00 0.00 47 1016.5
20260901191258 35 113 6.4 9.7 0.00 0.00 0.00 48 1016.5
20260901190754 35 17 3.2 4.8 0.00 0.00 0.00 47 1016.5
20260901190253 35 89 3.2 4.8 0.00 0.00 0.00 48 1016.7
20260901185752 35 87 8.0 12.9 0.00 0.00 0.00 48 1016.7
20260901185251 34 318 1.6 3.2 0.00 0.00 0.00 48 1016.7
20260901184747 34 76 3.2 4.8 0.00 0.00 0.00 49 1016.8
20260901184242 35 78 3.2 4.8 0.00 0.00 0.00 49 1017.0
20260901183738 33 161 8.0 11.3 0.00 0.00 0.00 49 1017.1
20260901183237 34 89 1.6 3.2 0.00 0.00 0.00 49 1017.2
20260901182733 33 145 4.8 6.4 0.00 0.00 0.00 48 1017.0
20260901182232 33 20 1.6 3.2 0.00 0.00 0.00 51 1017.4
20260901181727 33 36 4.8 4.8 0.00 0.00 0.00 51 1017.4
20260901181222 33 91 4.8 4.8 0.00 0.00 0.00 52 1017.6
20260901180721 33 204 1.6 3.2 0.00 0.00 0.00 51 1017.6
20260901180220 33 64 0.0 1.6 0.00 0.00 0.00 52 1017.7
20260901175719 34 69 14.5 17.7 0.00 0.00 0.00 51 1017.7
20260901175215 33 120 3.2 3.2 0.00 0.00 0.00 53 1017.8
20260901174710 33 129 8.0 11.3 0.00 0.00 0.00 51 1017.9
20260901174206 33 4 3.2 4.8 0.00 0.00 0.00 52 1018.2
20260901173701 33 123 3.2 3.2 0.00 0.00 0.00 53 1017.8
20260901173156 33 314 1.6 1.6 0.00 0.00 0.00 52 1018.1
20260901172652 32 91 1.6 1.6 0.00 0.00 0.00 53 1018.2
20260901172149 32 80 6.4 11.3 0.00 0.00 0.00 53 1018.4
20260901171643 33 64 6.4 14.5 0.00 0.00 0.00 55 1018.4
20260901171137 33 42 3.2 4.8 0.00 0.00 0.00 53 1018.3
20260901170637 33 170 3.2 4.8 0.00 0.00 0.00 54 1018.5
20260901170132 33 7 0.0 0.0 0.00 0.00 0.00 55 1018.4
20260901165631 32 28 3.2 4.8 0.00 0.00 0.00 57 1018.7
20260901165126 32 90 3.2 4.8 0.00 0.00 0.00 58 1018.8
20260901164622 33 79 4.8 4.8 0.00 0.00 0.00 55 1018.7
20260901164117 32 58 4.8 4.8 0.00 0.00 0.00 56 1018.8
20260901163613 32 129 4.8 6.4 0.00 0.00 0.00 57 1018.7
20260901163111 32 29 3.2 4.8 0.00 0.00 0.00 56 1018.5
20260901162606 31 65 8.0 11.3 0.00 0.00 0.00 58 1018.8
20260901162100 32 106 4.8 6.4 0.00 0.00 0.00 58 1018.9
20260901161559 31 268 0.0 0.0 0.00 0.00 0.00 59 1018.9
20260901161059 32 86 9.7 11.3 0.00 0.00 0.00 60 1018.7
20260901160555 32 213 1.6 3.2 0.00 0.00 0.00 60 1018.8
20260901160050 31 250 1.6 1.6 0.00 0.00 0.00 62 1018.9
20260901155549 31 356 3.2 4.8 0.00 0.00 0.00 63 1018.9
20260901155044 31 68 3.2 4.8 0.00 0.00 0.00 65 1018.9
20260901154539 31 243 1.6 1.6 0.00 0.00 0.00 64 1019.0
20260901154034 30 184 0.0 0.0 0.00 0.00 0.00 67 1018.9
20260901153528 31 85 1.6 3.2 0.00 0.00 0.00 65 1018.8
20260901153022 31 222 0.0 1.6 0.00 0.00 0.00 65 1018.9
20260901152517 30 113 0.0 1.6 0.00 0.00 0.00 67 1018.8
20260901152016 30 113 0.0 1.6 0.00 0.00 0.00 69 1018.9
20260901151512 30 269 3.2 3.2 0.00 0.00 0.00 68 1018.8
20260901151011 30 285 1.6 1.6 0.00 0.00 0.00 71 1018.7
20260901150509 29 234 3.2 3.2 0.00 0.00 0.00 72 1018.8
20260901150008 29 337 0.0 0.0 0.00 0.00 0.00 73 1018.7
20260901145501 29 312 3.2 4.8 0.00 0.00 0.00 74 1018.7
20260901145001 28 144 3.2 4.8 0.00 0.00 0.00 73 1018.8
20260901144456 28 261 3.2 3.2 0.00 0.00 0.00 76 1019.0
20260901143951 29 258 3.2 3.2 0.00 0.00 0.00 74 1019.0
20260901143447 28 235 3.2 3.2 0.00 0.00 0.00 77 1019.0
20260901142944 28 311 3.2 4.8 0.00 0.00 0.00 78 1019.1
20260901142438 28 291 6.4 6.4 0.00 0.00 0.00 79 1019.0
20260901141933 27 289 4.8 4.8 0.00 0.00 0.00 79 1019.2
20260901141427 27 235 0.0 1.6 0.00 0.00 0.00 80 1019.1
20260901140922 27 257 1.6 3.2 0.00 0.00 0.00 80 1019.2
20260901140420 27 275 3.2 3.2 0.00 0.00 0.00 80 1019.4
20260901135914 27 260 6.4 6.4 0.00 0.00 0.00 81 1019.2
20260901135409 27 260 3.2 3.2 0.00 0.00 0.00 81 1019.2
20260901134905 28 290 3.2 4.8 0.00 0.00 0.00 80 1019.2
20260901134400 28 11 0.0 0.0 0.00 0.00 0.00 78 1019.3
20260901133854 28 11 0.0 0.0 0.00 0.00 0.00 78 1019.2
20260901133354 27 319 0.0 0.0 0.00 0.00 0.00 81 1019.1
20260901132853 28 76 0.0 0.0 0.00 0.00 0.00 79 1019.1
20260901132348 28 76 0.0 0.0 0.00 0.00 0.00 80 1019.0
20260901131847 27 77 0.0 0.0 0.00 0.00 0.00 82 1019.0
20260901131346 27 320 0.0 0.0 0.00 0.00 0.00 84 1019.0
20260901130842 26 149 1.6 1.6 0.00 0.00 0.00 85 1018.8
20260901130337 26 192 0.0 0.0 0.00 0.00 0.00 85 1018.8
20260901125835 26 154 1.6 3.2 0.00 0.00 0.00 86 1018.5
20260901125334 26 207 0.0 0.0 0.00 0.00 0.00 87 1018.7
20260901124829 25 207 0.0 0.0 0.00 0.00 0.00 88 1018.6
20260901124324 25 207 0.0 0.0 0.00 0.00 0.00 88 1018.3
20260901123824 25 207 0.0 0.0 0.00 0.00 0.00 89 1018.5
20260901123319 25 206 0.0 0.0 0.00 0.00 0.00 89 1018.5
20260901122817 25 201 0.0 0.0 0.00 0.00 0.00 90 1018.4
20260901122312 25 221 0.0 0.0 0.00 0.00 0.00 90 1018.3
20260901121811 25 221 0.0 0.0 0.00 0.00 0.00 90 1018.2
20260901121307 25 221 0.0 0.0 0.00 0.00 0.00 90 1017.9
20260901120806 25 226 0.0 0.0 0.00 0.00 0.00 90 1018.1
20260901120301 25 222 0.0 1.6 0.00 0.00 0.00 90 1017.9
20260901115757 25 247 0.0 0.0 0.00 0.00 0.00 90 1018.1
20260901115252 25 229 0.0 1.6 0.00 0.00 0.00 89 1017.9
20260901114749 25 237 1.6 1.6 0.00 0.00 0.00 89 1018.1
20260901114245 25 206 1.6 1.6 0.00 0.00 0.00 89 1018.3
20260901113742 25 196 1.6 1.6 0.00 0.00 0.00 89 1018.1
20260901113237 25 236 0.0 1.6 0.00 0.00 0.00 89 1018.1
20260901112732 25 198 1.6 1.6 0.00 0.00 0.00 88 1018.2
20260901112232 25 189 1.6 1.6 0.00 0.00 0.00 88 1018.2
20260901111727 25 191 3.2 3.2 0.00 0.00 0.00 88 1018.1
20260901111226 25 234 3.2 3.2 0.00 0.00 0.00 88 1018.1
20260901110720 25 206 1.6 1.6 0.00 0.00 0.00 88 1018.3
20260901110215 25 232 1.6 1.6 0.00 0.00 0.00 88 1018.1
20260901105712 25 196 3.2 3.2 0.00 0.00 0.00 87 1017.9
20260901105211 26 201 4.8 4.8 0.00 0.00 0.00 87 1018.2
20260901104708 26 241 4.8 6.4 0.00 0.00 0.00 87 1018.1
20260901104203 26 222 4.8 4.8 0.00 0.00 0.00 87 1017.7
20260901103702 26 238 4.8 4.8 0.00 0.00 0.00 87 1017.7
20260901103157 26 184 6.4 6.4 0.00 0.00 0.00 86 1017.8
20260901102652 26 216 4.8 4.8 0.00 0.00 0.00 86 1017.7
20260901102151 26 195 1.6 3.2 0.00 0.00 0.00 86 1017.7
20260901101648 26 208 3.2 4.8 0.00 0.00 0.00 86 1017.7
20260901101146 26 227 3.2 3.2 0.00 0.00 0.00 86 1017.7
20260901100641 26 211 4.8 4.8 0.00 0.00 0.00 86 1017.8
20260901100136 26 209 4.8 4.8 0.00 0.00 0.00 86 1017.7
20260901095634 26 204 6.4 9.7 0.00 0.00 0.00 85 1017.5
20260901095132 26 225 6.4 6.4 0.00 0.00 0.00 85 1017.7
20260901094626 26 234 1.6 3.2 0.00 0.00 0.00 84 1017.8
20260901094121 26 228 1.6 1.6 0.00 0.00 0.00 84 1017.6
20260901093616 26 230 3.2 3.2 0.00 0.00 0.00 84 1017.7
20260901093115 26 210 4.8 4.8 0.00 0.00 0.00 83 1017.7
20260901092611 26 171 6.4 6.4 0.00 0.00 0.00 83 1017.9
20260901092107 26 184 4.8 6.4 0.00 0.00 0.00 83 1017.8
20260901091603 26 193 3.2 3.2 0.00 0.00 0.00 82 1017.8
20260901091058 26 181 1.6 3.2 0.00 0.00 0.00 82 1017.8
20260901090557 26 181 4.8 4.8 0.00 0.00 0.00 82 1017.8
20260901090053 26 136 4.8 4.8 0.00 0.00 0.00 81 1017.8
20260901085548 26 184 3.2 3.2 0.00 0.00 0.00 81 1017.7
20260901085044 27 174 3.2 4.8 0.00 0.00 0.00 81 1018.1
20260901084540 27 150 4.8 4.8 0.00 0.00 0.00 80 1017.7
20260901084036 27 128 3.2 3.2 0.00 0.00 0.00 80 1017.6
20260901083530 27 173 4.8 4.8 0.00 0.00 0.00 79 1017.7
20260901083028 27 179 4.8 4.8 0.00 0.00 0.00 79 1017.4
20260901082524 27 169 3.2 4.8 0.00 0.00 0.00 79 1017.8
20260901082019 27 174 4.8 4.8 0.00 0.00 0.00 78 1017.6
20260901081514 27 187 1.6 3.2 0.00 0.00 0.00 78 1017.7
20260901081008 27 107 1.6 3.2 0.00 0.00 0.00 78 1017.6
20260901080508 27 183 9.7 9.7 0.00 0.00 0.00 77 1017.8
20260901080002 27 159 3.2 4.8 0.00 0.00 0.00 77 1017.8
20260901075458 27 112 3.2 4.8 0.00 0.00 0.00 77 1017.8
20260901074956 27 131 4.8 4.8 0.00 0.00 0.00 77 1017.8
20260901074451 27 180 6.4 6.4 0.00 0.00 0.00 77 1017.7
20260901073946 27 201 4.8 6.4 0.00 0.00 0.00 76 1017.9
20260901073443 27 137 8.0 9.7 0.00 0.00 0.00 76 1017.9
20260901072943 27 157 4.8 4.8 0.00 0.00 0.00 75 1017.7
20260901072438 27 127 3.2 3.2 0.00 0.00 0.00 74 1017.7
20260901071933 27 97 1.6 3.2 0.00 0.00 0.00 74 1018.1
20260901071432 27 140 1.6 1.6 0.00 0.00 0.00 73 1018.1
20260901070932 28 165 4.8 4.8 0.00 0.00 0.00 73 1017.8
20260901070427 28 179 4.8 4.8 0.00 0.00 0.00 73 1017.9
20260901065926 27 191 8.0 12.9 0.00 0.00 0.00 73 1017.8
20260901065422 28 98 1.6 3.2 0.00 0.00 0.00 73 1017.6
20260901064916 28 166 8.0 11.3 0.00 0.00 0.00 73 1017.9
20260901064413 28 155 8.0 11.3 0.00 0.00 0.00 74 1017.6
20260901063910 28 138 3.2 4.8 0.00 0.00 0.00 74 1017.7
20260901063406 28 162 6.4 11.3 0.00 0.00 0.00 74 1017.6
20260901062856 28 148 4.8 6.4 0.00 0.00 0.00 74 1017.7
20260901062352 28 118 4.8 4.8 0.00 0.00 0.00 74 1017.7
20260901061847 28 159 14.5 16.1 0.00 0.00 0.00 73 1017.5
20260901061342 28 83 6.4 6.4 0.00 0.00 0.00 73 1017.5
20260901060832 28 170 11.3 14.5 0.00 0.00 0.00 72 1017.5
20260901060328 28 148 6.4 6.4 0.00 0.00 0.00 72 1017.5
20260901055827 28 163 3.2 4.8 0.00 0.00 0.00 71 1017.4
20260901055324 28 151 4.8 6.4 0.00 0.00 0.00 71 1017.6
20260901054820 28 169 8.0 12.9 0.00 0.00 0.00 70 1017.5
20260901054317 28 184 9.7 12.9 0.00 0.00 0.00 69 1017.6
20260901053813 28 150 9.7 11.3 0.00 0.00 0.00 69 1017.4
20260901053307 28 142 9.7 14.5 0.00 0.00 0.00 68 1017.4
20260901052757 28 111 6.4 9.7 0.00 0.00 0.00 68 1017.5
20260901052253 28 127 4.8 6.4 0.00 0.00 0.00 68 1017.2
20260901051751 28 164 8.0 11.3 0.00 0.00 0.00 67 1017.3
20260901051246 29 136 9.7 11.3 0.00 0.00 0.00 67 1017.2
20260901050742 29 132 9.7 12.9 0.00 0.00 0.00 67 1017.2
20260901050237 29 186 4.8 6.4 0.00 0.00 0.00 66 1017.1
20260901045732 29 108 6.4 9.7 0.00 0.00 0.00 66 1016.9
20260901045227 29 173 6.4 9.7 0.00 0.00 0.00 66 1017.1
20260901044722 29 199 3.2 4.8 0.00 0.00 0.00 66 1017.0
20260901044219 29 105 9.7 11.3 0.00 0.00 0.00 65 1017.1
20260901043714 30 146 4.8 11.3 0.00 0.00 0.00 65 1017.1
20260901043209 30 159 3.2 4.8 0.00 0.00 0.00 65 1017.1
20260901042709 30 209 11.3 14.5 0.00 0.00 0.00 64 1017.0
20260901042203 30 212 3.2 4.8 0.00 0.00 0.00 64 1017.0
20260901041659 30 116 11.3 12.9 0.00 0.00 0.00 63 1016.8
20260901041158 30 116 14.5 16.1 0.00 0.00 0.00 63 1016.8
20260901040654 30 74 9.7 12.9 0.00 0.00 0.00 62 1016.8
20260901040147 30 113 8.0 12.9 0.00 0.00 0.00 61 1017.0
20260901035646 30 139 12.9 12.9 0.00 0.00 0.00 61 1016.8
20260901035144 30 139 6.4 9.7 0.00 0.00 0.00 60 1016.9
20260901034638 30 119 11.3 14.5 0.00 0.00 0.00 60 1016.8
20260901034133 30 112 8.0 14.5 0.00 0.00 0.00 59 1016.9
20260901033632 30 146 16.1 17.7 0.00 0.00 0.00 59 1017.2
20260901033132 30 139 9.7 12.9 0.00 0.00 0.00 58 1016.8
20260901032630 30 133 11.3 14.5 0.00 0.00 0.00 58 1016.9
20260901032126 31 67 11.3 16.1 0.00 0.00 0.00 57 1016.7
20260901031621 31 114 12.9 17.7 0.00 0.00 0.00 56 1016.8
20260901031117 31 115 4.8 6.4 0.00 0.00 0.00 56 1016.7
20260901030617 31 149 14.5 22.5 0.00 0.00 0.00 54 1016.5
20260901030112 31 116 9.7 12.9 0.00 0.00 0.00 53 1016.6
20260901025606 31 62 8.0 12.9 0.00 0.00 0.00 51 1016.4
20260901025101 31 100 4.8 6.4 0.00 0.00 0.00 50 1016.4
20260901024555 32 137 8.0 11.3 0.00 0.00 0.00 48 1016.3
20260901024054 32 110 8.0 9.7 0.00 0.00 0.00 47 1016.1
20260901023553 32 153 6.4 6.4 0.00 0.00 0.00 46 1016.1
20260901023048 32 84 4.8 4.8 0.00 0.00 0.00 45 1015.9
20260901022543 32 121 6.4 9.7 0.00 0.00 0.00 45 1015.9
20260901022039 32 78 3.2 4.8 0.00 0.00 0.00 45 1015.9
20260901021534 32 68 8.0 9.7 0.00 0.00 0.00 44 1015.8
20260901021030 32 81 3.2 4.8 0.00 0.00 0.00 44 1015.8
20260901020525 32 80 6.4 6.4 0.00 0.00 0.00 44 1015.6
20260901020020 32 113 1.6 3.2 0.00 0.00 0.00 44 1015.7
20260901015516 32 123 6.4 9.7 0.00 0.00 0.00 43 1015.5
20260901015015 32 106 3.2 3.2 0.00 0.00 0.00 44 1015.6
20260901014511 32 100 4.8 4.8 0.00 0.00 0.00 43 1015.3
20260901014007 32 84 1.6 3.2 0.00 0.00 0.00 44 1015.3
20260901013502 33 94 4.8 6.4 0.00 0.00 0.00 43 1015.4
20260901012958 33 85 3.2 3.2 0.00 0.00 0.00 43 1015.5
20260901012457 33 49 0.0 0.0 0.00 0.00 0.00 43 1015.4
20260901011953 33 70 6.4 9.7 0.00 0.00 0.00 42 1015.4
20260901011449 33 69 4.8 6.4 0.00 0.00 0.00 43 1015.3
20260901010946 33 67 3.2 4.8 0.00 0.00 0.00 43 1015.0
20260901010442 33 72 3.2 4.8 0.00 0.00 0.00 42 1015.2
20260901005941 33 74 1.6 1.6 0.00 0.00 0.00 42 1015.2
20260901005436 33 94 3.2 3.2 0.00 0.00 0.00 41 1015.1
20260901004931 34 109 4.8 6.4 0.00 0.00 0.00 40 1015.2
20260901004430 34 72 3.2 4.8 0.00 0.00 0.00 40 1015.1
20260901003925 34 72 6.4 6.4 0.00 0.00 0.00 39 1015.1
20260901003420 35 78 6.4 6.4 0.00 0.00 0.00 39 1015.2